Wind_Speed
16 16 16 18 20 22 21 20 21 21 20 20 19 18 18 18 18 18 18 17 16 15 14 13 12 11 11 10 10 10 9 8 6 5 5 4 4 4 5 5 5 4 5 5 6 6 6 6 7 7 8 9 9 9 9 10 10 10 10 11 12 12 13 14 14 15 15 16 17 18 19 19 20 20 20 20 21 21 21 21 22 22 23 23 24 24
16 18 18 18 20 22 22 21 21 21 21 21 20 20 20 19 19 19 18 17 15 14 13 12 11 10 10 10 9 9 8 7 6 5 4 4 4 4 3 3 3 4 5 5 5 5 6 6 7 7 8 9 9 9 9 9 9 9 10 11 11 12 13 14 14 15 16 17 18 19 19 20 20 20 20 20 20 21 21 21 21 22 22 23 23 23
18 19 19 19 20 21 21 22 21 21 21 21 21 21 21 21 20 19 18 16 15 13 12 11 10 10 9 9 8 7 7 6 5 4 3 2 2 2 2 2 3 4 4 5 5 5 6 6 7 8 8 9 9 9 9 9 9 9 10 11 11 12 13 14 14 15 16 17 18 19 20 20 20 20 20 20 20 20 21 21 21 22 22 22 23 23
20 20 20 20 20 21 21 22 22 21 20 21 21 21 21 20 20 19 17 16 14 12 11 10 9 9 8 7 7 6 5 4 3 2 2 1 1 0 1 2 3 4 4 5 5 6 6 7 7 8 8 9 9 9 9 9 9 9 10 11 11 12 13 13 14 16 17 18 19 19 20 20 20 20 20 20 20 20 21 21 21 22 22 22 23 23
18 19 20 19 18 19 20 22 22 21 20 20 20 20 20 19 19 18 16 14 13 11 10 9 8 7 7 7 6 5 4 3 2 3 3 2 2 1 1 2 3 4 4 5 6 6 7 7 8 8 8 8 9 9 9 9 9 9 10 11 11 12 13 14 15 16 17 18 19 19 20 20 20 20 20 20 20 20 21 21 21 22 22 23 23 23
18 19 20 18 17 17 19 21 22 22 21 20 20 20 19 18 17 16 15 13 11 10 9 8 7 7 7 7 6 5 4 4 4 4 4 3 1 1 2 3 3 4 5 6 6 7 7 7 8 8 8 8 8 9 9 9 9 9 10 11 11 12 13 14 15 16 17 18 19 19 19 20 20 20 20 20 20 20 21 21 21 22 22 23 23 23
18 21 21 20 20 20 20 21 21 22 22 22 21 20 19 18 16 15 13 12 11 10 9 8 8 8 7 6 5 5 5 5 5 5 3 2 0 2 3 3 4 5 5 6 6 7 7 7 8 8 8 8 8 9 9 9 9 10 10 11 11 12 13 14 15 16 17 18 19 19 19 19 19 20 20 20 20 20 21 21 21 22 22 22 22 23
17 20 21 21 21 21 20 21 22 22 23 24 23 21 20 18 16 14 13 11 10 10 10 10 9 8 7 6 5 5 5 5 4 3 2 0 2 3 3 3 4 5 6 6 6 7 7 7 7 7 8 8 8 9 9 9 10 10 10 10 11 12 13 14 15 16 17 18 19 19 19 19 19 19 20 20 20 20 20 21 21 21 21 22 22 23
19 19 19 20 21 21 20 20 22 23 23 24 24 23 21 19 16 14 13 12 11 11 11 10 9 8 7 6 5 5 5 4 3 2 1 2 3 3 3 4 5 5 6 6 6 6 7 7 7 7 7 8 8 9 9 10 10 10 10 10 11 12 13 14 15 16 17 18 18 19 19 19 19 19 19 19 20 20 20 20 21 21 21 21 22 23
21 20 18 19 21 22 20 19 22 24 23 23 23 22 21 20 18 16 14 13 13 12 12 11 9 8 7 6 6 5 5 5 3 2 2 3 4 4 4 5 5 6 5 5 5 5 5 5 6 7 7 8 9 10 10 10 10 10 10 10 11 12 13 14 15 16 17 18 18 18 18 19 19 19 19 19 20 20 20 20 20 21 21 22 23 23
18 19 18 18 20 22 22 21 22 23 23 22 21 20 19 19 18 17 15 14 14 14 13 11 10 9 8 7 7 6 6 5 4 2 2 3 4 5 6 6 5 5 4 3 3 3 3 4 6 7 8 9 10 10 10 10 10 10 10 11 11 12 13 14 15 16 17 17 18 18 18 18 19 19 19 19 19 20 20 20 20 21 21 22 23 24
17 16 16 16 18 19 19 20 21 23 22 20 16 15 16 18 18 18 18 16 16 16 14 12 11 10 9 9 8 7 6 5 4 3 4 5 6 6 6 6 5 4 3 2 1 2 3 5 6 8 9 10 11 10 10 10 10 10 10 11 11 12 13 14 15 16 17 17 17 18 18 18 18 19 19 19 19 20 20 20 20 21 22 23 24 24
18 17 16 16 17 18 18 18 18 19 20 19 16 14 16 18 19 18 18 18 18 17 16 14 12 10 9 9 9 8 6 5 4 5 6 8 8 8 7 5 4 3 2 2 2 3 5 6 7 9 10 12 11 10 10 10 10 10 11 11 12 12 13 14 15 16 16 17 17 17 18 18 18 19 19 19 19 20 20 20 21 21 22 23 24 24
17 16 15 13 13 15 17 18 17 17 18 20 20 20 20 21 20 19 17 18 18 17 16 14 13 11 10 10 9 7 6 6 6 7 9 10 10 9 7 6 5 4 3 3 4 5 6 8 9 10 12 12 11 10 10 10 10 11 11 11 12 13 13 14 15 16 16 16 17 17 18 18 18 19 19 19 19 20 20 20 21 21 22 23 24 24
15 14 12 11 12 14 16 18 19 19 21 22 23 22 21 21 21 19 18 18 18 17 16 15 14 12 11 10 9 7 6 6 8 10 11 11 11 10 8 6 5 4 3 4 5 7 8 9 11 12 13 12 11 10 10 10 11 11 11 12 12 13 14 14 15 15 16 16 17 17 17 18 18 18 19 19 19 20 20 20 21 21 22 23 23 24
16 15 13 12 13 15 18 20 20 19 20 22 22 21 20 20 21 21 20 20 20 19 17 15 12 9 8 8 9 8 7 8 10 12 13 13 12 10 8 6 5 4 4 6 8 9 10 11 13 13 13 12 10 10 10 11 11 11 12 12 13 13 14 14 15 15 16 16 16 17 17 17 18 18 18 19 19 20 20 20 21 21 22 23 23 23
16 15 15 14 15 16 20 21 20 19 20 21 21 21 22 22 23 23 22 22 21 19 16 13 8 4 3 6 7 8 8 10 12 13 14 14 13 11 9 7 6 6 7 8 10 11 12 13 14 14 13 11 10 10 11 11 11 12 12 12 13 13 14 14 15 15 15 16 16 16 17 17 17 18 18 18 19 19 20 20 21 21 22 23 23 23
16 16 16 15 15 17 20 20 19 19 20 21 22 22 22 23 24 24 23 23 21 17 13 10 7 4 4 5 6 7 10 11 13 14 14 14 13 11 9 7 6 7 9 11 12 12 13 13 14 14 12 11 10 11 11 11 12 12 12 13 13 13 14 14 14 15 15 15 16 16 17 17 17 17 18 18 19 19 20 20 21 21 22 23 23 23
17 18 18 17 17 18 20 21 21 21 22 23 23 23 22 22 23 23 23 22 20 17 12 8 5 5 7 7 9 10 11 11 13 14 15 14 12 10 9 7 7 8 10 12 12 12 12 13 13 13 12 11 11 11 11 12 12 12 12 13 13 14 14 14 14 14 15 15 16 16 16 17 17 17 17 18 19 19 20 20 20 21 22 23 23 23
20 21 22 21 20 20 20 22 24 25 25 26 26 25 23 22 23 22 22 21 19 16 13 10 9 8 10 12 12 11 11 11 12 13 14 13 11 10 9 8 8 9 11 11 11 11 10 11 11 12 12 12 12 12 12 12 12 12 12 13 13 13 14 14 14 14 15 15 15 16 16 17 17 17 17 18 18 19 19 20 20 21 22 23 23 22
22 23 25 25 23 21 20 22 25 27 28 28 27 26 24 23 23 22 22 20 18 15 13 12 11 12 14 14 13 11 11 11 11 11 9 8 9 9 8 8 8 10 11 10 9 9 8 8 9 10 12 12 12 12 12 12 12 12 12 13 13 13 14 14 14 14 15 15 15 16 16 17 17 17 17 18 18 19 19 19 20 20 21 22 23 22
24 25 26 26 25 23 22 24 25 26 27 28 28 27 25 24 23 23 23 20 18 16 16 15 15 15 16 15 13 12 11 10 10 9 6 5 6 8 8 8 9 10 11 10 8 6 5 5 6 8 10 11 12 12 12 12 12 13 13 13 13 13 14 14 14 14 15 15 15 16 16 17 17 17 17 17 18 18 19 19 19 20 21 22 23 22
25 25 25 25 24 23 23 23 24 26 27 27 27 27 27 27 26 25 23 21 20 20 20 20 18 17 16 15 13 12 11 10 10 8 6 4 5 7 8 8 10 11 12 10 8 5 4 4 4 5 6 9 11 12 12 12 12 12 13 13 13 13 14 14 14 14 15 15 15 16 16 16 17 17 17 17 18 18 19 19 19 20 21 22 23 22
23 23 23 23 23 22 21 21 23 26 27 27 25 25 25 25 25 24 24 23 23 23 22 21 19 17 15 14 12 11 10 9 8 7 5 4 4 6 7 9 11 13 12 11 9 7 5 5 4 4 4 6 9 12 12 13 12 12 12 13 13 14 14 14 14 14 15 15 15 16 16 16 17 17 17 17 18 18 18 18 18 19 20 22 22 22
22 21 21 22 21 20 19 20 23 26 27 26 25 25 24 24 23 23 22 22 22 23 23 21 17 14 13 12 11 10 9 8 7 6 5 4 5 6 8 10 12 13 13 11 9 8 8 7 6 5 5 6 9 11 12 13 12 12 12 13 13 14 14 14 14 15 15 15 15 16 16 16 16 16 17 17 18 18 18 18 18 19 20 21 22 22
20 19 19 19 19 18 18 20 23 25 25 25 24 24 24 24 24 23 22 22 23 23 22 17 12 10 10 10 10 9 8 7 6 5 6 5 5 6 8 11 13 13 13 12 11 10 10 10 9 9 9 9 10 11 12 12 12 12 12 13 13 14 14 14 15 15 15 15 16 16 16 16 16 16 17 17 18 18 18 18 18 19 19 21 22 21
16 16 16 17 17 17 19 21 23 23 22 22 22 23 24 24 24 23 23 23 24 23 19 13 8 7 8 8 8 8 8 6 5 6 7 7 6 5 8 12 14 14 14 14 13 12 12 13 12 12 12 12 12 12 13 13 13 13 13 13 13 14 14 15 15 15 15 16 16 16 16 15 15 16 16 17 17 18 18 18 18 18 19 20 21 21
15 16 17 18 19 20 21 22 22 21 21 21 21 21 22 23 23 23 22 24 24 22 17 13 8 5 5 4 6 7 7 6 5 6 7 6 5 6 9 13 16 15 15 14 14 14 13 14 14 13 13 13 13 13 13 14 14 14 14 14 13 13 14 14 15 15 15 16 16 15 15 15 15 16 16 16 17 18 18 18 18 18 18 19 20 21
20 20 21 21 22 22 22 22 21 20 20 21 21 20 18 19 21 23 24 25 24 20 16 14 11 9 7 8 8 7 6 5 5 6 7 6 5 7 11 14 16 16 13 10 10 12 13 14 14 14 14 13 13 13 14 14 15 15 15 15 15 14 14 15 15 15 15 15 15 15 15 15 15 15 16 16 17 17 18 17 17 18 18 18 19 20
26 26 26 25 25 25 24 23 22 21 21 21 20 18 16 15 17 20 23 24 23 20 17 15 14 14 13 11 7 4 3 4 6 7 7 6 5 7 12 13 14 13 10 6 4 5 9 12 14 14 13 13 12 13 13 14 15 15 15 16 16 16 15 15 15 15 15 15 15 15 15 15 15 15 15 16 17 17 18 17 17 17 17 18 18 19
29 28 28 27 27 27 26 25 24 23 22 21 20 18 16 15 16 18 20 21 21 19 19 18 18 18 16 9 4 1 1 4 7 8 8 5 5 8 11 10 10 11 9 6 4 2 2 5 9 12 13 13 12 12 13 14 14 15 15 16 17 17 17 17 17 17 16 16 15 15 15 15 15 15 15 16 16 17 17 17 17 17 17 17 18 19
30 29 29 28 27 26 26 25 24 23 22 21 19 18 17 17 17 18 18 18 16 15 17 19 21 20 16 8 4 2 3 6 9 9 8 6 7 9 11 9 9 9 7 6 5 3 2 1 4 8 12 13 13 12 12 13 13 14 15 16 17 18 18 18 18 18 18 17 16 15 15 15 15 15 15 15 16 16 17 17 17 16 16 17 18 18
29 28 28 27 26 25 24 23 22 21 21 20 19 19 18 18 18 18 16 15 13 12 13 17 20 19 15 10 7 6 7 10 11 10 10 8 8 9 11 12 11 10 9 8 7 6 4 4 4 6 10 12 13 13 12 12 13 13 14 15 17 18 18 19 19 19 19 18 17 16 16 15 15 15 15 15 15 16 16 16 16 16 15 16 16 17
28 27 27 26 25 23 22 21 21 20 20 19 19 19 19 19 18 17 16 14 12 11 10 13 17 18 17 13 11 11 11 13 12 11 10 9 8 10 14 14 13 12 11 10 10 10 7 6 5 5 6 9 12 13 13 13 12 13 13 15 16 17 18 19 19 19 19 19 18 17 17 16 16 16 15 15 15 15 15 15 15 15 14 14 15 15
27 26 25 24 23 22 21 21 20 20 20 19 19 19 18 18 18 17 16 15 13 12 10 9 10 13 16 17 17 14 13 14 13 12 11 11 13 15 16 14 14 13 11 10 9 8 6 7 7 6 4 6 9 12 13 13 12 12 13 14 16 17 18 18 18 19 19 19 18 17 17 16 16 16 16 16 16 15 15 14 15 15 14 13 12 13
25 24 24 23 22 21 21 20 20 20 20 19 19 19 18 18 17 17 16 16 15 14 13 11 9 9 11 14 17 19 18 16 14 13 13 14 17 18 14 13 14 15 13 12 12 11 9 9 9 9 7 5 6 8 11 13 12 12 13 14 15 16 17 17 17 18 18 18 18 17 16 16 16 16 16 16 16 15 15 15 15 14 12 11 11 11
23 22 22 22 22 21 21 21 20 20 20 20 19 18 18 17 17 17 16 16 17 17 16 15 14 13 13 14 16 18 19 18 17 16 15 15 16 17 17 16 17 18 17 16 16 15 13 11 10 9 9 7 5 5 8 12 13 13 13 14 15 16 16 16 16 17 17 18 17 17 16 15 15 16 16 16 16 16 16 16 16 14 11 9 9 9
21 20 20 21 21 21 21 21 21 21 21 20 19 19 18 18 18 18 18 18 18 18 19 19 19 18 17 17 18 18 19 19 19 18 17 16 17 19 22 22 21 20 20 19 18 17 14 11 8 6 6 7 6 6 8 12 14 14 14 14 14 15 15 15 15 16 16 17 17 16 15 15 15 15 16 16 17 18 18 18 18 15 11 7 7 8
19 19 19 20 21 22 22 22 22 22 21 21 20 20 20 20 20 20 20 20 20 20 20 20 21 21 20 20 20 20 20 20 20 19 19 18 19 20 22 23 22 21 19 19 18 17 14 11 8 5 4 4 5 7 9 11 13 14 14 14 14 14 15 15 14 15 15 16 16 16 15 14 14 14 15 16 17 18 19 19 19 17 12 9 7 8
19 19 19 20 21 23 23 23 23 23 23 22 22 22 22 23 23 23 23 22 22 22 21 22 22 22 22 22 22 22 21 21 20 20 20 20 20 20 20 21 21 20 19 18 18 17 16 14 11 9 7 4 4 5 7 9 11 13 14 13 12 12 14 14 14 13 14 15 16 16 15 14 14 14 15 16 17 18 18 19 18 17 14 12 11 12
19 19 19 21 22 24 24 24 24 24 24 24 24 25 25 26 26 27 26 25 24 23 23 23 23 23 23 22 22 22 21 21 20 20 20 20 20 19 19 19 19 19 18 17 17 17 16 15 13 11 9 7 6 6 8 10 11 12 13 12 11 10 11 13 13 13 13 14 15 15 15 14 13 13 14 14 15 16 17 17 17 16 15 13 13 15
20 20 21 23 24 25 25 25 25 25 25 25 26 26 27 28 29 29 28 27 26 25 24 24 24 24 23 22 21 20 20 20 19 19 19 19 18 18 17 17 16 16 16 15 15 15 14 13 11 10 8 8 7 7 7 10 11 11 11 12 11 10 8 11 12 12 13 13 14 15 15 14 13 12 12 13 13 14 14 15 16 16 15 14 14 15
21 22 24 26 26 26 26 26 25 25 25 26 27 27 28 28 28 29 28 28 27 25 24 24 24 24 23 22 20 19 19 18 18 18 18 17 17 16 15 14 14 14 14 14 13 13 12 12 10 9 8 8 8 7 8 10 11 11 11 11 11 10 7 10 12 12 12 13 13 14 15 14 13 11 11 11 11 12 12 13 14 15 15 15 15 15
23 25 26 27 27 26 26 25 25 25 26 27 27 28 27 27 27 27 28 28 27 26 25 24 24 24 23 21 19 18 17 17 17 17 16 16 15 14 13 12 12 12 13 12 12 11 10 10 9 8 7 7 7 7 8 9 10 10 11 11 11 10 9 10 11 11 12 12 13 14 14 14 12 10 9 10 11 11 12 12 13 13 14 15 15 15
26 26 26 26 26 25 25 25 25 26 26 27 28 28 27 27 26 27 28 28 27 26 25 25 23 21 19 19 18 18 17 16 16 16 15 14 14 13 12 11 11 11 11 11 10 9 9 8 7 6 6 6 7 7 7 7 8 9 10 10 10 10 9 10 10 10 11 12 13 14 14 13 12 10 9 10 11 11 12 12 13 13 14 15 15 15
26 25 24 24 24 23 23 24 25 25 25 26 27 28 27 27 26 26 27 28 27 26 25 24 22 19 17 18 18 18 17 16 15 14 14 13 12 12 12 11 11 10 9 9 8 8 7 6 5 5 5 6 6 6 7 7 8 8 9 9 9 9 9 9 9 10 11 12 13 14 14 14 13 12 11 11 11 11 12 12 13 13 14 15 16 16
25 24 23 23 22 22 23 24 24 24 24 25 26 27 27 27 26 27 27 27 26 25 23 22 21 20 19 19 19 18 18 16 15 14 13 12 11 11 11 10 10 10 9 8 7 7 7 6 6 5 5 5 5 6 7 8 8 8 8 9 9 9 9 9 10 10 11 12 13 14 14 15 15 14 13 12 12 12 12 12 13 13 14 14 15 15
25 24 23 23 22 22 22 22 23 23 24 24 25 26 26 26 26 27 27 26 25 23 21 20 20 20 20 19 19 19 18 18 16 14 13 12 11 10 10 10 10 9 9 8 8 8 7 7 7 6 5 4 4 5 7 9 9 8 8 8 9 9 9 9 9 10 11 12 13 14 14 15 16 15 15 14 14 14 14 14 13 13 14 14 14 14
26 25 24 23 23 22 22 23 23 24 24 24 25 25 25 24 24 25 25 24 23 22 21 21 21 20 19 18 18 18 18 17 16 15 13 11 10 10 10 10 10 9 9 9 9 9 9 8 8 8 7 6 4 5 8 10 10 9 8 8 8 8 8 8 9 10 11 12 13 13 14 14 15 15 15 15 15 15 15 16 15 15 15 15 15 14
25 25 25 24 23 22 23 23 23 24 24 25 25 25 24 23 23 23 23 23 22 21 21 22 22 21 20 19 19 18 18 17 16 15 13 12 11 10 9 9 9 9 9 9 9 9 8 8 8 8 8 7 6 5 7 9 10 9 8 8 8 7 7 8 9 10 11 12 12 13 13 13 14 14 14 14 14 15 15 17 17 17 16 17 16 15
25 25 24 24 23 23 23 23 23 24 24 25 25 25 25 23 22 22 21 21 21 21 22 23 22 21 20 20 20 19 18 17 16 15 13 12 11 10 10 10 10 10 9 8 8 7 7 6 5 5 6 7 6 6 6 8 9 9 8 7 6 6 7 8 9 10 11 12 12 12 13 13 13 13 14 14 14 14 15 17 18 18 18 18 19 18
Wind_Direction
177 179 180 184 182 179 180 187 191 192 191 194 194 194 196 199 202 206 210 212 213 215 218 222 228 235 243 252 259 263 261 253 242 233 231 237 250 261 275 290 309 330 344 346 346 347 350 353 357 359 1 2 3 2 2 1 1 0 359 358 356 355 355 354 353 352 351 350 348 347 345 343 341 339 337 334 333 331 329 328 327 326 325 324 324 323
171 172 172 178 179 178 176 184 191 194 193 194 195 196 197 199 200 202 205 207 209 212 216 221 229 238 246 252 255 252 246 237 231 228 232 242 255 268 285 311 336 350 353 353 353 357 0 3 6 7 7 8 7 6 5 5 4 3 1 359 358 357 356 356 355 354 352 351 349 346 345 343 341 339 337 335 334 333 332 331 330 329 329 327 327 327
165 165 166 172 176 176 175 180 188 195 196 197 197 198 199 199 200 200 201 202 206 211 217 225 233 241 245 245 240 234 228 226 227 228 230 237 250 275 316 344 356 360 2 4 8 11 14 16 15 15 14 13 12 10 9 7 6 3 2 1 359 359 358 357 356 354 353 352 350 348 345 344 342 340 339 338 337 336 335 334 333 333 332 331 330 330
162 162 165 169 173 176 177 180 185 190 195 198 199 199 201 200 199 200 201 203 207 212 220 228 234 236 233 226 218 212 213 215 216 208 192 180 170 82 18 12 11 12 18 22 25 27 27 26 24 22 20 18 16 14 12 10 7 4 2 1 0 360 359 358 357 356 354 352 351 349 347 345 344 343 342 341 341 340 339 338 337 336 335 334 334 333
162 163 165 167 169 172 177 182 184 186 189 192 194 195 198 198 199 199 202 206 210 215 221 225 224 217 208 200 196 194 195 188 169 153 149 147 139 90 28 22 24 31 35 38 39 39 36 33 30 27 24 22 19 16 14 11 7 4 3 1 0 0 360 359 357 356 354 353 351 350 348 347 346 345 345 344 343 343 342 341 340 338 338 337 337 336
163 165 167 168 168 169 174 180 182 183 182 185 188 190 192 195 196 198 200 204 209 213 214 209 201 193 187 182 179 176 175 164 154 152 155 155 142 45 17 26 38 48 51 52 50 46 41 37 33 29 25 22 19 16 13 9 6 4 3 2 1 1 0 359 357 356 354 353 352 351 349 348 348 348 347 347 346 345 344 343 342 340 340 339 338 337
165 166 169 170 170 170 171 175 180 182 181 180 182 185 187 190 192 194 197 202 205 204 198 190 184 179 175 171 167 164 165 165 166 168 170 170 94 5 13 31 50 60 61 61 56 49 43 38 33 29 24 20 16 13 10 8 6 4 3 3 3 2 1 359 357 356 354 353 352 351 350 350 350 350 349 348 347 347 345 344 342 342 341 340 340 339
164 167 169 169 168 166 167 172 178 183 184 182 179 179 181 184 187 190 194 198 197 191 182 176 174 170 165 159 155 154 158 166 172 175 177 214 360 8 21 45 66 72 69 67 60 53 44 39 33 27 21 16 13 10 9 9 7 6 6 5 5 3 0 359 357 356 354 354 353 352 352 351 351 351 350 349 348 347 346 345 344 343 342 342 342 340
163 165 168 169 166 163 165 172 179 183 187 187 184 180 178 179 182 186 189 188 184 178 171 168 165 162 159 153 148 145 146 149 149 139 76 16 15 25 43 68 82 84 80 74 66 56 46 39 31 23 15 12 12 12 12 12 11 10 10 8 7 4 1 359 358 356 355 355 354 353 353 353 352 352 351 350 349 348 347 346 345 345 345 345 343 341
166 164 166 169 170 169 168 172 179 183 187 189 189 188 184 180 178 178 178 176 174 171 167 164 161 159 156 151 146 143 141 139 131 105 51 33 37 50 68 83 92 95 93 88 78 64 49 37 24 16 11 15 18 18 17 17 16 16 14 12 8 4 2 0 359 358 356 356 355 355 354 353 353 353 352 351 350 349 348 347 347 347 347 346 344 342
166 165 162 164 171 175 175 175 178 181 185 188 191 193 193 190 184 176 170 170 170 168 165 162 161 160 158 154 151 149 147 146 139 115 73 63 70 78 86 92 95 99 103 102 93 72 44 25 15 12 16 24 26 24 22 22 22 20 17 13 9 5 2 2 1 359 357 357 357 356 355 355 355 354 353 352 351 350 350 349 349 349 348 346 345 344
164 164 161 163 168 172 174 176 177 179 181 184 186 190 194 197 194 184 171 169 168 167 164 163 162 161 157 154 153 153 153 151 138 114 96 92 92 92 92 94 95 94 91 89 72 38 18 10 9 16 28 37 35 30 27 28 27 24 19 14 10 6 5 4 2 1 360 359 359 358 357 356 356 355 355 353 352 352 352 351 351 350 348 347 346 347
167 168 166 165 167 170 171 170 171 175 180 184 186 187 190 193 193 188 176 171 169 167 164 161 159 157 154 151 148 147 147 141 129 112 104 97 90 85 82 83 81 76 67 51 30 17 13 13 21 34 44 47 41 35 32 31 29 24 20 14 11 9 7 5 4 3 2 1 360 359 358 358 357 357 356 355 355 354 354 353 352 350 348 348 348 348
165 166 164 165 170 175 175 173 173 178 187 193 194 194 191 189 186 181 173 167 166 166 165 158 150 145 146 144 140 137 136 131 126 116 105 93 82 73 67 66 65 61 49 37 30 27 25 33 44 53 55 51 45 39 36 33 29 24 20 15 13 11 9 7 5 4 3 2 2 0 360 359 359 358 357 357 356 356 355 354 353 351 350 350 349 348
163 162 166 174 181 185 185 183 184 188 194 196 196 194 190 183 179 174 166 159 160 163 162 152 141 135 136 137 134 129 128 132 127 116 102 89 77 67 59 58 59 55 44 42 43 44 47 56 62 63 58 52 46 42 37 32 27 23 20 17 14 13 11 9 7 5 4 4 3 2 1 0 360 360 359 359 358 358 356 354 353 352 352 351 349 347
168 169 175 183 189 192 193 192 192 193 195 194 193 189 180 173 172 171 165 159 159 159 154 142 130 125 130 138 136 130 128 131 126 115 100 86 75 64 54 53 56 57 52 57 60 65 70 74 72 65 57 51 46 41 37 32 27 23 21 18 16 14 12 10 8 7 6 5 4 3 2 2 1 0 0 0 360 358 357 355 354 354 353 351 349 347
172 176 182 187 191 196 197 196 195 194 192 190 188 186 179 173 172 171 167 163 161 159 157 151 143 131 132 138 138 136 135 132 126 116 101 85 74 62 50 49 56 63 66 71 76 81 84 82 74 64 56 49 44 40 35 30 27 24 22 19 17 15 13 11 10 8 7 6 5 4 4 3 2 2 2 1 0 359 357 356 356 356 354 352 350 348
179 183 186 189 192 194 194 194 194 193 189 185 183 182 180 176 174 173 170 166 163 163 164 159 151 140 143 149 143 138 137 136 131 118 101 85 74 63 52 50 60 74 79 84 88 90 91 86 75 63 53 48 43 38 34 30 27 25 22 20 18 16 14 12 11 10 9 8 7 6 5 4 3 3 3 2 1 360 358 359 359 357 355 353 351 350
187 189 190 191 192 191 190 190 190 189 186 182 178 175 172 173 174 174 172 169 168 167 166 157 140 132 135 138 138 136 135 140 136 120 97 83 73 65 57 58 71 85 90 92 95 97 97 91 78 64 51 45 41 37 33 30 27 25 23 21 18 17 15 13 12 11 10 9 8 7 6 4 3 3 3 3 2 0 360 0 360 358 357 355 353 352
192 194 195 194 190 187 187 191 192 190 186 183 177 171 166 168 171 172 172 172 172 170 163 143 127 124 130 133 134 134 135 144 138 119 96 82 71 64 61 67 82 94 96 97 100 103 101 95 82 66 49 43 39 36 33 30 27 26 24 22 20 18 16 15 14 13 11 11 9 8 6 5 4 3 3 3 2 1 0 1 0 359 358 357 356 355
194 198 200 198 192 187 188 192 194 193 189 182 175 168 165 166 168 170 173 173 170 161 148 131 126 132 135 134 133 133 137 145 140 125 101 81 67 63 67 76 90 97 96 98 104 109 107 100 86 69 49 40 37 35 33 31 29 28 26 24 22 19 18 16 15 14 13 11 10 8 7 5 4 3 3 3 3 2 1 0 0 0 360 359 358 357
200 201 203 202 199 195 193 193 193 191 187 180 172 166 165 166 167 170 172 168 159 146 134 127 130 137 138 134 133 133 135 145 148 140 117 93 63 59 74 90 98 96 91 90 97 107 110 103 90 73 54 42 35 33 32 32 31 29 28 26 24 21 19 18 16 15 13 12 10 9 7 6 5 4 3 4 3 2 0 359 360 1 1 0 359 358
207 205 203 202 202 201 199 195 191 188 184 179 174 171 170 170 169 168 166 161 153 144 138 136 138 139 137 133 131 131 132 139 146 145 126 111 70 63 80 101 106 99 89 84 83 87 92 86 80 72 61 47 38 33 32 32 32 31 29 28 25 22 20 18 17 15 13 12 10 9 7 6 5 4 4 4 4 2 0 359 359 1 2 1 0 360
212 210 205 202 201 201 200 194 187 182 178 177 175 174 173 172 168 164 161 158 153 148 142 138 134 130 129 129 128 127 128 131 140 146 138 117 88 79 88 109 110 102 92 84 78 75 75 68 60 56 63 57 44 36 33 33 33 32 31 29 26 23 21 19 17 15 14 12 10 9 8 7 6 5 4 4 4 3 1 360 1 3 2 2 2 1
213 211 206 202 200 199 198 190 181 176 174 174 174 173 169 165 160 157 155 154 150 144 138 130 122 116 119 123 124 122 123 124 130 139 139 120 95 90 98 115 117 108 97 89 82 77 75 72 65 60 64 65 54 44 36 35 34 33 32 29 26 24 21 19 17 15 13 12 10 9 9 8 7 6 5 4 3 3 2 0 2 3 2 2 3 3
212 208 202 196 193 190 185 177 171 170 171 172 171 168 163 158 153 149 147 146 144 140 134 124 115 113 120 121 120 119 122 122 125 131 136 130 107 94 104 120 122 114 102 92 84 79 77 76 73 70 70 68 62 53 44 40 38 37 34 31 27 24 21 19 17 15 13 12 11 10 9 9 8 7 6 5 4 3 2 1 2 2 0 1 2 4
196 191 184 178 173 168 164 162 162 165 167 168 166 163 160 156 150 145 142 146 148 145 137 128 121 120 117 115 118 123 127 126 123 125 131 130 117 101 109 123 124 116 103 93 85 80 79 77 76 73 70 68 65 61 55 50 48 46 41 36 30 24 21 19 17 15 14 12 12 11 10 10 9 8 7 6 5 4 3 2 0 359 358 359 0 1
162 158 155 152 150 150 151 153 156 159 161 162 162 162 163 161 154 148 151 157 158 152 141 136 134 129 120 121 128 133 134 131 128 129 130 128 115 106 118 129 128 119 106 94 87 83 80 77 75 73 71 68 66 64 62 59 55 52 48 44 37 29 22 19 17 15 14 13 12 12 11 11 10 10 9 8 6 5 4 3 360 357 356 358 359 359
131 131 132 133 135 138 142 145 148 152 155 157 159 162 166 168 164 160 162 164 162 155 143 139 136 132 130 135 136 135 135 136 137 136 133 123 110 114 129 136 134 127 118 107 93 84 76 74 73 71 69 68 67 66 64 61 57 52 49 46 42 35 25 20 18 16 15 14 14 13 13 12 11 11 10 9 7 6 5 3 360 357 356 358 357 357
124 125 125 128 132 136 140 142 144 148 153 156 158 160 164 172 172 167 165 166 164 158 145 138 135 134 133 132 131 129 134 146 147 143 136 123 112 122 134 142 145 144 142 142 123 85 68 70 70 70 69 68 66 65 63 60 56 51 47 43 41 37 30 25 22 19 17 16 15 15 14 14 12 12 11 9 8 7 6 4 1 359 358 357 356 356
129 129 129 132 137 141 144 146 148 151 154 156 155 155 158 166 169 167 164 167 168 163 152 145 142 142 142 139 133 145 184 166 158 151 143 131 125 131 136 140 152 160 162 160 147 125 82 70 67 67 71 69 66 64 61 58 54 50 45 41 38 35 32 30 28 26 23 21 18 17 16 15 14 13 11 10 8 7 6 5 2 359 358 357 356 356
133 133 134 137 141 145 148 150 153 154 154 153 152 152 156 161 163 163 164 168 170 166 157 152 151 152 153 151 145 150 169 165 161 155 147 135 130 134 138 133 139 149 155 149 135 127 136 120 73 66 68 65 64 62 59 56 52 48 43 38 36 34 33 31 31 30 29 27 24 22 20 18 16 14 12 10 8 7 6 5 3 360 358 357 355 355
134 134 136 140 143 147 150 152 154 154 152 151 152 154 156 158 158 158 159 163 167 167 161 157 156 157 158 149 134 128 142 152 154 152 147 138 130 130 133 128 123 122 123 115 106 100 104 118 108 81 66 61 60 59 57 54 50 45 40 36 34 32 32 32 31 31 29 28 28 28 27 24 20 17 14 11 9 7 5 4 3 1 358 357 355 354
134 135 137 140 143 145 148 150 150 149 149 150 153 155 155 154 152 152 152 153 157 162 165 162 161 161 157 142 128 125 135 145 148 148 148 147 138 129 129 125 123 120 115 106 97 94 96 104 110 104 79 64 59 57 55 52 49 45 40 36 33 31 31 32 31 30 28 28 29 30 29 27 24 21 19 14 10 7 5 4 3 1 359 357 355 353
134 134 137 139 141 142 143 144 145 146 147 149 151 152 151 150 148 147 146 145 146 148 152 158 162 163 159 146 137 135 138 142 143 143 146 148 139 131 128 126 126 126 121 114 107 101 99 95 96 99 96 75 61 54 51 50 48 46 43 39 35 32 31 32 31 29 27 27 28 29 29 27 25 23 21 17 13 9 7 5 3 1 0 359 357 355
132 132 135 137 138 138 138 140 143 145 147 148 148 148 147 146 145 144 142 141 140 139 138 138 142 149 151 145 138 135 135 136 135 135 139 139 134 130 126 125 126 125 121 117 115 113 110 99 90 87 84 77 61 50 46 46 47 47 44 41 38 35 34 34 32 29 27 26 27 27 27 26 24 22 20 18 15 12 10 7 5 4 4 3 2 359
132 132 134 136 137 137 138 140 143 145 147 146 146 145 144 143 142 141 139 139 138 136 133 130 129 129 129 128 126 125 126 127 128 129 132 133 130 126 121 120 120 119 116 115 115 114 111 104 94 85 76 67 55 37 32 36 40 42 41 40 38 36 36 36 34 30 28 27 27 26 25 25 24 22 19 17 15 13 12 10 10 10 11 10 9 6
132 133 135 138 139 140 140 141 143 145 146 145 144 142 142 140 139 137 137 136 136 134 132 129 126 124 121 119 118 119 121 123 125 126 126 126 123 120 117 115 114 112 110 111 110 110 108 106 98 86 77 66 56 41 26 25 27 29 32 36 37 36 36 36 34 31 29 27 26 25 24 24 24 23 20 18 16 15 13 11 11 13 17 21 21 17
134 135 137 139 141 143 143 144 145 146 146 143 141 140 139 137 135 134 134 134 133 132 130 127 124 120 118 116 116 117 119 120 120 120 119 117 116 114 113 112 110 108 106 105 103 101 100 99 98 96 90 71 53 39 29 23 20 20 23 27 31 34 35 35 33 32 30 27 25 24 23 22 23 24 22 20 18 16 14 11 10 11 16 22 26 26
138 138 140 142 145 147 147 148 148 146 144 141 140 138 137 135 133 132 132 131 131 129 127 125 121 118 116 115 115 116 116 116 116 116 115 114 112 111 109 108 108 107 104 101 98 95 92 91 91 91 90 77 50 34 27 20 17 17 17 15 16 22 29 30 32 33 32 29 25 23 21 22 24 25 24 22 20 18 15 12 9 9 14 18 19 16
140 139 141 144 147 148 149 149 148 146 144 142 140 138 137 135 134 132 131 131 129 127 126 123 120 117 115 114 115 115 115 116 116 116 115 114 112 111 109 107 106 105 103 100 97 94 91 88 86 82 75 64 50 37 26 20 19 18 15 9 5 10 21 26 29 32 33 31 27 23 20 21 24 26 25 24 22 20 17 14 10 8 12 17 17 12
141 141 143 145 146 147 148 148 147 145 144 143 141 139 139 139 138 136 134 133 131 129 128 125 122 119 117 115 115 116 117 117 118 118 117 116 115 113 110 108 106 104 102 100 97 94 91 86 80 73 64 52 41 32 24 21 22 22 19 12 8 9 17 22 26 32 33 32 28 23 19 21 24 25 24 23 22 20 18 16 12 10 10 12 13 11
143 143 145 146 146 147 148 147 146 145 145 144 142 142 143 143 142 140 138 136 135 133 132 130 127 124 121 119 119 119 119 120 121 121 121 119 117 115 111 108 106 104 102 99 96 93 90 85 77 67 58 47 35 21 12 14 18 21 22 19 14 10 8 11 18 27 32 32 29 24 20 20 23 24 23 21 19 18 17 16 15 13 10 9 8 6
143 143 144 145 146 147 147 146 147 147 147 146 145 145 146 146 146 144 141 139 138 136 135 133 129 126 123 123 123 122 121 122 123 123 123 121 119 115 111 107 105 104 102 99 97 94 89 82 74 65 54 42 30 20 12 10 11 14 19 24 24 19 11 10 15 21 28 31 30 25 21 19 21 24 25 20 16 14 13 14 15 14 11 9 7 4
141 141 142 143 144 145 146 148 149 150 149 148 148 148 148 149 149 146 143 141 140 139 137 136 132 127 124 127 128 127 125 125 125 125 123 121 118 114 111 107 105 103 101 100 97 93 84 74 66 60 53 40 29 18 9 4 5 10 18 26 32 34 32 27 24 25 29 31 31 28 23 20 21 25 29 25 18 13 10 10 10 10 9 7 5 3
140 140 142 144 145 147 149 151 151 151 150 150 150 150 151 152 151 149 146 144 142 141 141 139 135 131 131 133 133 132 130 128 127 125 123 120 117 114 111 109 106 103 101 99 96 92 84 74 65 56 46 37 31 26 18 10 6 8 17 28 36 39 38 35 33 33 35 35 33 30 26 23 24 28 30 27 21 15 11 9 8 8 6 4 2 0
141 142 144 146 147 149 150 151 151 150 149 150 151 152 153 154 153 151 148 146 144 143 142 140 136 134 135 137 137 136 134 132 130 127 124 121 117 114 112 111 109 108 105 101 96 90 86 83 77 66 49 35 27 24 23 20 17 15 21 31 38 40 38 37 39 41 40 38 36 32 29 27 28 31 31 29 25 19 14 12 11 9 7 4 0 358
144 145 146 147 148 148 150 151 151 150 149 149 151 152 153 155 154 151 149 147 146 144 142 138 135 133 135 137 137 136 134 132 129 127 124 120 118 117 117 116 115 113 110 106 99 93 89 85 81 77 71 58 36 23 21 23 25 28 33 40 44 43 40 41 45 47 46 43 40 36 33 32 31 31 30 28 25 21 17 15 14 13 10 5 2 359
147 147 148 149 149 149 151 151 151 149 148 148 149 151 153 154 154 152 150 149 147 145 142 139 136 135 135 136 136 134 132 130 128 125 123 121 120 121 122 122 121 118 113 107 101 96 92 89 86 84 81 75 60 35 25 27 31 38 46 53 54 51 48 49 51 51 49 46 44 42 39 37 35 32 29 26 22 18 16 14 15 15 13 10 7 4
148 149 150 151 151 152 152 152 151 150 149 148 148 149 151 153 154 153 152 151 148 146 143 142 139 137 137 137 136 135 133 131 129 127 126 126 127 128 129 129 127 122 117 109 103 97 93 89 87 85 81 75 67 47 29 27 33 43 54 60 62 61 58 58 56 54 51 49 47 45 43 40 36 33 29 25 21 17 15 14 14 14 14 13 13 12
149 151 153 152 153 153 154 153 152 151 150 149 149 150 150 151 152 153 153 151 148 146 144 143 141 139 138 138 136 135 133 132 129 127 127 129 130 132 133 134 132 128 123 118 111 104 96 90 82 77 75 67 57 41 23 20 29 44 59 65 67 66 65 65 62 58 56 52 49 46 44 41 38 34 31 27 22 16 13 12 12 13 14 14 14 16
Height
736 737 739 740 741 743 744 745 746 747 748 750 751 753 754 755 756 757 757 758 759 759 760 761 761 762 762 763 763 763 763 763 763 764 764 764 764 764 764 763 763 763 763 763 763 763 763 763 762 762 761 760 759 759 759 758 758 758 757 757 756 755 755 754 753 753 752 751 750 748 748 746 745 744 743 742 741 740 738 737 736 735 733 732 731 729
735 737 738 740 741 742 743 744 745 746 747 749 750 752 753 754 755 756 757 757 758 759 759 760 761 761 762 762 762 763 763 763 763 763 763 764 763 763 763 763 763 763 763 763 763 763 763 762 762 761 760 759 759 759 758 758 758 757 757 756 755 755 754 753 753 752 751 750 749 748 747 746 745 743 742 741 740 739 738 736 735 734 733 731 730 728
735 736 738 739 741 742 743 743 745 746 747 748 749 751 752 753 754 755 756 757 758 758 759 759 760 760 761 761 762 762 762 762 763 763 763 763 763 763 763 763 763 763 763 763 763 762 762 761 761 760 759 759 759 758 758 758 757 757 756 756 755 754 754 753 752 751 750 749 748 747 746 745 744 743 742 740 739 738 737 735 734 733 732 730 729 728
734 735 737 738 740 741 742 743 744 745 747 748 749 750 751 752 753 754 755 756 757 758 758 759 759 760 760 760 761 761 762 762 763 763 763 763 763 763 762 762 762 762 762 762 762 761 761 760 760 759 759 759 758 758 758 757 757 756 756 755 755 754 753 753 752 751 750 748 748 747 745 744 743 742 741 740 738 737 736 735 734 733 731 730 729 727
734 735 736 738 739 740 742 743 743 745 747 748 749 750 751 752 753 753 755 755 756 757 758 758 758 759 759 760 760 760 761 762 762 763 763 763 763 762 762 761 761 761 761 761 761 761 760 760 759 759 759 758 758 758 757 757 757 756 755 755 754 754 753 752 751 750 749 748 747 746 745 744 743 742 740 739 738 737 735 734 733 732 731 729 728 727
733 734 735 737 738 739 741 742 743 745 746 748 748 749 750 751 752 753 754 755 756 756 757 757 758 758 759 759 759 760 761 762 762 762 762 762 762 761 761 761 760 760 760 760 760 760 759 759 759 758 758 758 758 757 757 757 756 756 755 755 754 753 753 752 751 750 749 748 747 746 744 743 742 741 740 739 738 736 735 734 733 732 731 729 728 727
733 733 734 736 737 738 740 742 743 744 745 746 748 749 750 751 752 753 753 754 755 756 756 757 757 758 758 758 759 760 761 761 761 762 761 761 761 761 760 760 759 759 759 759 759 759 759 759 758 758 758 758 757 757 757 756 756 755 755 754 754 753 752 751 750 749 748 748 746 745 744 743 742 741 739 738 737 736 735 734 733 732 730 729 728 726
731 733 734 734 736 738 739 741 742 743 744 745 746 748 749 750 751 752 753 753 754 755 756 756 757 757 758 758 759 759 760 760 761 761 761 760 760 760 759 759 759 759 759 758 758 758 758 758 758 758 758 757 757 757 756 756 755 755 754 754 753 753 752 751 750 749 748 747 746 745 744 743 741 740 739 738 737 736 735 733 732 731 730 728 727 726
730 732 733 734 735 737 739 740 742 743 744 745 745 746 748 748 750 751 752 753 753 754 755 756 757 757 758 758 758 759 759 760 760 760 760 760 759 759 758 758 758 758 758 758 758 758 758 758 758 758 757 757 757 756 756 755 755 754 754 754 753 753 752 751 750 749 748 747 746 744 743 742 741 740 739 738 737 736 734 733 732 731 729 728 727 725
729 730 732 733 735 736 737 739 740 742 743 744 745 746 746 747 748 749 751 752 753 754 755 756 756 757 758 758 758 758 759 759 759 759 759 759 758 758 758 758 757 757 757 757 757 758 758 758 758 757 757 757 756 756 755 755 755 754 754 753 753 752 751 751 750 749 748 746 745 744 743 742 741 740 739 738 737 735 734 733 732 730 729 728 727 725
730 730 731 733 734 735 736 738 739 741 743 744 745 746 746 746 747 748 749 751 753 754 755 756 756 757 757 758 758 758 758 759 759 759 759 758 758 758 757 757 757 757 757 757 757 757 757 757 757 757 756 756 756 756 755 755 755 754 754 753 753 752 751 750 749 748 747 746 745 744 743 742 741 740 738 738 736 735 734 733 731 730 729 728 726 725
729 730 731 732 734 736 737 738 739 741 742 744 745 746 746 746 746 747 748 749 751 753 754 755 756 756 756 757 757 758 758 758 758 758 758 758 758 757 757 757 757 757 756 757 757 757 757 757 757 757 756 756 756 756 755 755 755 754 754 753 753 752 751 750 749 748 747 746 745 744 743 742 741 739 738 737 736 735 734 733 731 730 729 728 726 725
727 729 731 732 734 735 737 738 740 741 742 743 743 743 743 744 745 746 747 748 750 752 753 754 755 755 756 756 756 757 758 758 758 758 758 757 757 757 757 756 756 756 756 757 757 757 757 757 757 757 756 756 756 756 755 755 755 754 754 753 752 752 751 750 749 748 747 746 744 743 743 742 740 739 738 737 736 735 733 732 731 730 729 728 726 725
727 728 731 733 735 735 736 737 738 739 740 740 740 740 740 742 743 745 747 748 750 752 753 753 754 754 755 755 756 757 757 757 757 757 757 757 757 757 757 756 756 756 756 757 757 757 757 757 757 757 756 756 756 756 755 755 755 754 753 753 752 751 750 749 748 747 746 745 744 743 742 741 740 739 738 737 736 734 733 732 731 730 729 728 726 725
726 728 731 733 734 735 735 735 735 736 736 737 738 738 739 741 742 744 746 748 750 751 752 753 753 754 754 755 756 756 757 757 756 756 756 756 757 757 757 756 756 756 757 757 757 757 757 757 757 757 756 756 756 756 755 755 755 754 753 753 752 751 750 749 748 747 746 745 744 743 742 741 740 739 738 737 736 734 733 732 731 730 729 728 726 725
724 726 728 730 732 733 733 733 733 734 735 736 737 738 739 740 742 743 745 747 748 750 751 752 753 753 754 754 755 756 756 756 756 756 756 756 757 757 757 757 756 756 757 757 757 757 757 757 757 757 756 757 757 756 756 755 755 754 753 753 752 751 750 749 748 747 746 745 744 743 742 741 740 739 738 737 736 734 733 732 731 730 729 728 726 725
723 724 726 728 729 730 731 731 732 733 734 735 736 737 737 738 740 742 743 745 747 748 749 749 750 752 754 754 755 755 756 756 755 755 755 756 757 757 757 757 757 756 757 757 757 757 757 757 757 757 757 757 757 756 756 755 754 754 753 752 751 750 749 748 748 747 746 745 744 743 742 741 740 739 738 737 736 734 733 732 731 730 729 728 726 725
721 722 724 725 727 728 728 730 731 732 733 734 735 736 737 738 739 740 742 743 745 746 747 747 748 749 752 753 754 755 755 755 755 754 755 756 757 757 757 757 757 757 757 757 757 757 757 757 756 757 757 757 756 756 756 755 754 753 753 752 751 750 749 748 748 747 746 745 744 743 742 741 740 739 738 737 736 734 733 732 731 730 729 728 726 725
719 720 721 722 723 725 726 728 729 730 731 732 733 734 736 737 739 740 742 743 744 744 745 746 747 748 750 751 753 753 754 754 754 754 754 756 757 758 758 757 757 757 757 757 757 757 757 756 756 757 757 757 756 756 755 755 754 753 753 752 751 750 749 748 748 747 746 745 744 743 742 741 740 739 738 737 736 734 733 733 731 730 729 728 726 725
717 718 718 719 720 722 724 725 726 727 728 729 730 732 734 736 738 739 741 742 743 743 744 745 746 748 749 750 752 753 753 753 753 753 754 756 757 758 758 758 757 757 756 757 757 757 757 756 756 756 757 757 756 756 755 754 753 753 752 752 751 750 749 748 748 747 746 745 744 743 742 741 740 739 738 737 736 735 733 733 732 730 729 728 726 725
714 715 715 716 718 719 721 722 723 725 726 727 729 730 732 734 736 738 740 741 742 743 743 744 746 747 748 750 751 752 752 753 753 753 754 756 757 758 758 758 757 757 756 756 757 757 756 756 756 756 757 756 756 755 755 754 753 753 752 751 751 750 749 749 748 747 746 745 744 743 742 741 740 739 738 737 736 735 734 733 732 731 729 728 726 725
712 712 713 715 716 717 718 720 722 724 725 726 728 729 730 732 734 736 738 739 740 741 743 744 746 747 748 749 750 751 751 752 752 753 754 756 758 758 758 758 757 757 756 756 757 756 756 756 756 756 756 756 756 755 754 753 753 753 752 751 751 750 750 749 748 747 746 745 744 743 742 741 740 739 738 737 736 735 734 733 732 731 729 728 726 725
711 711 713 714 715 717 718 719 721 723 725 726 727 727 729 731 733 734 736 738 739 740 742 743 745 747 748 748 749 750 751 751 752 753 753 756 757 758 757 757 757 757 756 757 756 756 756 756 756 756 756 756 755 755 754 753 753 753 752 752 751 750 750 749 748 747 747 746 744 743 743 741 740 739 738 737 736 735 734 733 732 731 729 728 727 725
711 711 712 713 715 716 718 719 721 722 724 726 727 729 730 732 733 735 736 737 738 739 741 743 745 747 748 748 749 749 750 751 751 752 753 755 757 757 757 757 757 757 757 757 756 756 756 756 756 756 755 755 755 755 754 753 753 753 752 752 751 751 750 749 748 748 747 746 744 743 743 742 740 739 738 738 737 736 734 733 732 731 729 728 727 725
710 711 712 713 714 716 717 718 720 722 724 725 727 729 731 733 734 735 736 737 738 740 741 743 745 747 748 748 748 749 750 751 751 752 752 754 756 757 756 756 756 756 757 757 757 756 756 756 756 755 755 754 754 754 754 753 753 753 752 752 751 751 750 749 748 748 747 746 745 743 743 742 741 740 739 738 737 736 735 733 732 731 730 728 727 726
710 711 712 713 714 716 717 719 721 722 724 726 727 729 730 732 733 735 736 738 739 740 741 743 745 747 747 748 748 749 750 751 751 751 752 753 755 756 756 756 756 756 756 757 757 757 756 756 756 755 755 754 754 754 754 753 753 753 752 752 751 751 750 749 748 748 747 746 745 744 743 742 741 740 739 738 737 736 735 734 733 731 730 729 728 726
710 711 712 713 715 716 718 720 722 724 725 727 728 729 730 731 733 734 737 738 738 739 740 742 744 746 747 748 748 749 750 750 751 751 751 752 753 755 755 755 755 756 756 756 757 757 757 756 756 755 755 754 754 754 754 753 753 753 752 752 751 751 750 750 749 748 747 746 745 744 743 742 741 740 739 738 737 736 735 734 733 731 730 729 728 727
710 711 713 714 715 717 719 721 723 725 727 728 729 730 730 731 732 733 735 737 737 738 738 740 742 744 746 748 748 749 750 750 750 751 751 751 753 754 754 755 755 755 756 756 757 757 757 756 756 755 755 755 755 754 754 754 753 753 752 752 751 751 751 750 749 748 747 746 745 744 743 742 741 741 740 739 738 737 736 734 733 732 731 729 728 727
711 712 713 715 716 718 720 722 724 725 727 728 729 730 731 731 731 732 733 735 736 737 738 738 739 742 744 747 748 749 749 750 750 750 750 751 752 753 753 754 754 755 755 756 757 757 757 757 756 756 756 756 755 755 755 754 754 753 753 752 752 751 751 750 749 748 747 746 745 744 743 743 742 741 740 739 738 737 736 735 733 732 731 730 729 728
712 713 714 715 716 718 719 721 723 725 726 728 728 730 731 732 732 733 733 734 735 736 736 737 738 740 743 746 748 749 750 749 749 749 750 750 751 753 753 753 754 754 754 755 756 757 757 757 757 756 756 756 756 755 755 755 754 754 753 753 752 751 750 750 749 748 747 746 745 744 743 743 742 741 740 739 738 737 736 735 734 733 732 731 729 728
711 712 713 714 715 717 719 720 722 724 725 727 728 729 731 732 733 733 734 734 734 734 735 736 738 739 741 743 746 748 749 749 748 748 749 749 751 752 752 753 753 753 753 753 754 755 757 758 758 757 757 757 756 756 755 755 754 754 753 753 752 751 750 750 749 748 747 746 745 744 744 743 742 741 740 739 738 738 737 736 734 733 732 731 730 728
710 711 712 714 715 717 719 721 722 724 725 727 728 729 731 732 733 734 734 735 735 734 734 735 737 738 740 741 743 745 746 747 747 748 748 748 749 751 751 752 752 753 753 753 752 753 756 757 758 758 757 757 756 756 756 755 755 754 754 753 752 751 751 750 749 748 747 746 745 745 744 743 742 742 741 740 739 738 737 736 735 734 733 732 730 729
710 712 713 715 717 718 720 722 723 725 726 727 728 730 731 732 733 733 734 735 735 735 735 735 737 738 739 740 740 742 744 745 746 747 747 748 748 750 751 751 752 752 752 752 752 752 754 756 757 758 757 757 757 756 756 756 755 755 754 753 753 752 751 750 749 748 747 747 746 745 744 743 743 742 741 740 739 738 738 737 736 735 733 732 731 730
711 712 714 716 718 719 721 723 724 725 727 728 729 730 731 732 732 733 733 734 735 735 736 736 736 737 738 739 740 742 743 744 745 746 746 747 748 749 750 750 751 751 752 752 752 753 754 755 756 757 757 757 757 757 756 756 756 755 754 753 753 752 751 750 749 748 748 747 746 745 744 743 743 742 741 740 739 739 738 737 736 735 734 733 732 731
712 713 714 716 718 720 722 723 724 726 727 728 729 730 731 731 732 733 733 733 734 735 736 737 737 737 738 738 739 741 743 744 745 745 746 747 747 748 749 750 750 750 751 751 752 753 755 756 756 756 757 757 757 757 757 757 756 756 755 754 753 752 752 751 750 749 748 747 746 746 745 744 743 742 741 741 740 739 738 737 736 735 734 734 733 732
712 714 715 717 719 721 722 724 725 726 727 728 729 730 731 731 732 732 733 733 734 735 736 737 738 739 739 738 738 739 741 743 744 745 746 747 747 747 748 749 750 750 750 751 752 753 754 755 756 756 757 757 757 757 757 757 757 756 755 754 753 753 752 751 750 750 749 748 747 746 745 744 744 743 742 741 740 739 738 738 736 735 734 734 733 733
712 714 716 718 720 721 723 724 725 726 727 728 729 730 730 731 731 732 733 733 734 735 736 737 738 739 740 740 740 740 741 743 744 745 747 748 748 747 748 749 750 750 750 751 752 752 753 755 756 756 757 757 758 758 758 757 757 756 755 754 754 753 753 752 751 750 749 748 748 747 746 745 744 743 743 742 741 740 738 738 736 735 734 734 733 733
713 715 717 718 720 722 723 724 725 726 727 728 729 729 730 731 731 732 733 733 735 736 737 738 738 739 740 741 741 742 743 743 745 746 747 748 748 748 747 749 750 751 751 752 752 752 753 754 755 756 757 758 758 758 758 757 757 756 755 755 754 754 753 752 752 751 750 749 748 748 747 746 745 744 743 742 741 740 738 738 736 735 735 734 734 733
713 715 717 718 720 721 723 724 725 726 727 728 729 729 730 730 731 732 733 734 735 736 737 738 739 740 741 741 742 743 744 745 746 747 748 749 749 749 748 749 750 751 752 752 753 753 753 753 755 756 757 758 758 758 758 758 757 756 755 755 754 754 753 753 752 752 751 750 749 748 747 747 746 745 744 743 742 740 739 738 737 736 735 734 734 734
713 715 717 718 720 721 723 724 725 726 727 728 728 729 729 730 731 733 734 735 736 737 738 738 739 740 741 742 743 744 745 746 747 748 748 749 750 750 750 750 750 751 752 753 753 753 753 754 755 756 757 758 758 758 758 758 757 756 756 755 755 754 754 753 753 752 751 750 749 749 748 747 746 745 744 743 743 741 740 739 738 737 736 736 735 734
713 715 717 718 719 721 723 724 725 726 727 728 728 729 729 730 731 733 734 736 737 738 738 739 740 741 742 743 744 745 746 747 748 748 749 750 751 751 751 751 752 752 753 753 753 754 754 755 756 757 757 758 758 758 758 758 757 757 757 756 756 755 754 754 753 753 752 751 750 749 748 748 747 746 745 744 743 743 742 741 739 738 738 737 736 735
713 715 716 718 719 721 723 724 725 726 727 727 728 728 729 730 731 732 734 735 737 738 739 739 740 741 743 744 745 746 747 748 748 749 750 751 751 752 752 752 753 753 753 753 754 754 755 756 756 757 757 758 758 758 758 758 758 757 757 757 756 755 755 754 754 753 752 751 751 750 749 748 747 747 746 745 744 743 743 742 741 740 739 738 737 737
713 714 716 717 719 721 722 724 725 726 727 727 728 729 729 730 731 732 733 735 736 738 739 739 740 741 742 744 746 747 748 748 749 750 751 751 752 752 753 753 753 753 754 754 754 755 756 756 757 757 757 758 758 758 758 758 758 758 758 757 757 756 755 755 754 753 753 752 751 750 750 749 748 747 747 746 745 744 743 742 742 741 740 739 738 738
713 714 716 718 719 721 722 723 725 726 727 727 728 729 730 731 732 733 733 734 736 737 738 739 740 741 742 744 746 747 748 749 750 750 751 752 752 753 753 753 753 754 754 755 755 756 756 757 757 757 758 758 758 758 758 758 758 758 758 758 757 757 756 756 755 754 753 753 752 751 750 749 749 748 747 746 745 744 744 743 742 741 741 740 739 738
712 714 716 718 719 721 722 723 724 725 726 727 728 729 730 731 732 733 733 734 736 737 738 739 740 741 743 744 746 747 748 749 750 751 752 752 752 753 753 753 754 754 755 755 756 756 757 757 757 758 758 758 758 758 758 758 758 758 758 758 758 757 757 756 755 754 753 753 752 751 751 750 749 748 747 747 746 745 744 743 743 742 741 740 740 739
713 715 717 718 719 721 722 723 724 725 726 727 728 729 730 732 733 733 734 734 735 737 738 739 740 741 743 744 746 747 748 749 750 751 752 752 752 753 753 753 754 754 755 756 756 756 757 757 757 758 758 758 758 759 759 759 759 758 758 758 758 757 757 756 756 755 754 753 753 752 751 750 749 748 748 747 746 746 745 744 743 743 742 741 740 740
713 715 716 718 719 721 722 723 724 725 726 728 728 730 731 732 733 734 734 735 736 737 738 739 740 741 743 744 746 747 748 749 750 751 752 752 753 753 753 753 754 755 755 756 756 757 757 757 758 758 758 758 759 759 759 759 759 759 758 758 758 758 757 757 756 755 755 754 753 753 752 751 750 749 748 748 747 746 745 745 744 743 743 742 741 740
713 714 716 718 719 721 722 723 724 725 726 728 729 730 732 732 733 734 735 736 736 737 738 740 741 742 743 745 746 747 748 749 750 751 752 752 753 753 753 754 754 755 755 756 757 757 757 758 758 758 758 759 759 759 759 759 759 759 759 758 758 758 758 757 756 756 755 754 754 753 752 752 751 750 749 748 748 747 746 745 745 744 743 743 742 741
712 714 716 718 719 721 722 723 724 725 726 727 729 731 732 733 734 734 735 736 737 737 738 739 741 743 744 746 747 748 748 749 750 751 751 752 752 753 753 754 754 755 756 756 757 757 758 758 758 759 759 759 759 760 760 760 759 759 759 759 758 758 758 758 757 756 756 755 754 754 753 753 752 751 750 749 748 748 747 746 745 744 744 743 742 741
713 714 716 718 719 720 722 723 723 724 725 727 728 730 732 733 734 735 736 736 737 738 739 740 741 742 744 746 747 748 748 749 750 751 751 752 753 753 753 754 754 755 756 757 757 758 758 759 759 759 760 760 760 760 760 760 760 760 759 759 759 759 758 758 757 757 756 756 755 754 754 753 753 752 751 750 749 748 748 747 746 745 744 743 743 742
713 715 716 718 719 720 721 722 723 724 725 726 728 729 731 733 734 735 736 737 737 738 740 741 742 743 744 745 747 748 748 749 750 750 751 752 752 753 753 754 754 755 756 757 757 758 758 759 760 760 760 760 760 760 760 760 760 760 760 760 759 759 759 758 758 757 757 756 756 755 755 754 753 753 752 751 750 749 748 747 746 746 745 744 743 742